"Timestamp","TZ","WindDir_Mean (deg)","WindSpd_Mean (km/h)","WindSpd_Min (km/h)","WindSpd_Max (km/h)","Temp_Mean (deg)","RH_Mean (%)","MSLP_Mean (hPa)","Rain_Acc (mm)","Rain_Intensity (mm/h)","Hail_Acc (hits/cm2)","Hail_Intensity (hits/cm2hr)","Solar_Mean (W/m2)"
2022/08/09 00:00:00.006,n,161,5.4,2.16,8.64,11.5,75.4,1020.82,0,0,0,0,0.02964
2022/08/09 00:01:00.000,n,137,0.36,0,0.72,11.5,75.3,1020.82,0,0,0,0,0.027008
2022/08/09 00:02:00.000,n,184,1.8,0.72,5.76,11.5,75.3,1020.82,0,0,0,0,0.027885
2022/08/09 00:03:00.000,n,205,2.52,1.8,5.4,11.5,75.1,1020.82,0,0,0,0,0.024414
2022/08/09 00:04:00.000,n,172,6.12,3.96,9.36,11.5,74.9,1020.82,0,0,0,0,0.028763
2022/08/09 00:05:00.007,n,151,6.12,4.32,7.92,11.5,74.7,1020.82,0,0,0,0,0.025253
2022/08/09 00:06:00.005,n,163,5.76,2.52,8.28,11.5,74.5,1020.82,0,0,0,0,0.026131
2022/08/09 00:07:00.001,n,187,3.96,1.44,7.2,11.5,74.5,1020.82,0,0,0,0,0.024414
2022/08/09 00:08:00.014,n,19,2.52,1.8,2.88,11.5,74.3,1020.82,0,0,0,0,0.020905
2022/08/09 00:09:00.011,n,152,4.32,2.16,7.56,11.5,74.3,1020.82,0,0,0,0,0.025253
2022/08/09 00:10:00.000,n,184,6.84,4.68,9.36,11.5,74.2,1020.82,0,0,0,0,0.020065
2022/08/09 00:11:00.000,n,114,0.36,0.36,0.36,11.5,74.2,1020.82,0,0,0,0,0.017433
2022/08/09 00:12:00.003,n,312,1.44,0.72,1.8,11.5,74.1,1020.82,0,0,0,0,0.019188
2022/08/09 00:13:00.000,n,239,2.88,1.44,3.24,11.5,74,1020.82,0,0,0,0,0.016556
2022/08/09 00:14:00.000,n,285,1.44,1.08,2.52,11.5,74.1,1020.82,0,0,0,0,0.013084
2022/08/09 00:15:00.011,n,304,1.44,1.08,1.8,11.5,74.3,1020.92,0,0,0,0,0.013924
2022/08/09 00:16:00.008,n,204,2.16,1.44,2.88,11.6,74,1020.92,0,0,0,0,0.027885
2022/08/09 00:17:00.004,n,224,1.8,1.08,5.4,11.6,73.8,1020.92,0,0,0,0,0.028763
2022/08/09 00:18:00.001,n,233,3.24,1.08,4.32,11.6,73.9,1020.92,0,0,0,0,0.02964
2022/08/09 00:19:00.000,n,174,2.52,1.44,2.88,11.6,73.8,1020.92,0,0,0,0,0.027008
2022/08/09 00:20:00.000,n,271,2.16,0.72,3.6,11.6,73.8,1020.92,0,0,0,0,0.024414
2022/08/09 00:21:00.000,n,249,3.6,2.88,3.96,11.5,73.7,1020.92,0,0,0,0,0.021782
2022/08/09 00:22:00.005,n,258,4.68,4.68,5.04,11.5,73.7,1020.92,0,0,0,0,0.025253
2022/08/09 00:23:00.002,n,241,2.52,2.16,3.96,11.5,73.7,1020.92,0,0,0,0,0.024414
2022/08/09 00:24:00.000,n,245,3.6,0.72,5.76,11.5,73.8,1020.92,0,0,0,0,0.028763
2022/08/09 00:25:00.012,n,262,4.32,3.96,5.04,11.5,73.9,1020.92,0,0,0,0,0.026131
2022/08/09 00:26:00.009,n,220,2.52,1.8,3.6,11.5,73.9,1020.92,0,0,0,0,0.022659
2022/08/09 00:27:00.006,n,200,2.52,1.44,3.6,11.5,74,1020.92,0,0,0,0,0.020905
2022/08/09 00:28:00.000,n,298,0.72,0,1.08,11.5,74.2,1020.92,0,0,0,0,0.022659
2022/08/09 00:29:00.000,n,136,1.44,0.36,1.8,11.5,74.2,1020.92,0,0,0,0,0.023537
2022/08/09 00:30:00.000,n,159,7.92,4.32,9.36,11.5,74.1,1020.92,0,0,0,0,0.026131
2022/08/09 00:31:00.000,n,112,2.16,1.8,2.52,11.5,74.1,1020.92,0,0,0,0,0.027008
2022/08/09 00:32:00.008,n,310,0.36,0.36,0.72,11.5,74.2,1020.92,0,0,0,0,0.019188
2022/08/09 00:33:00.005,n,281,3.24,2.16,3.96,11.5,74,1020.92,0,0,0,0,0.021782
2022/08/09 00:34:00.001,n,297,1.44,0.72,1.44,11.5,74,1021.02,0,0,0,0,0.016556
2022/08/09 00:35:00.000,n,279,3.24,2.52,3.96,11.5,74.2,1021.02,0,0,0,0,0.020905
2022/08/09 00:36:00.011,n,198,1.8,1.08,4.32,11.5,74.1,1021.02,0,0,0,0,0.020065
2022/08/09 00:37:00.000,n,215,1.8,1.44,1.8,11.4,74.2,1021.02,0,0,0,0,0.022659
2022/08/09 00:38:00.000,n,298,2.88,2.16,3.24,11.4,74.3,1021.02,0,0,0,0,0.029602
2022/08/09 00:39:00.000,n,293,5.04,4.68,5.4,11.4,74.3,1020.92,0,0,0,0,0.034828
2022/08/09 00:40:00.000,n,274,5.04,3.96,5.76,11.4,74.3,1021.02,0,0,0,0,0.031319
2022/08/09 00:41:00.000,n,265,3.6,1.8,4.68,11.3,74.4,1020.92,0,0,0,0,0.030479
2022/08/09 00:42:00.007,n,280,4.32,3.24,5.4,11.3,74.4,1021.02,0,0,0,0,0.028725
2022/08/09 00:43:00.008,n,318,1.44,0.72,2.16,11.3,74.7,1021.02,0,0,0,0,0.032234
2022/08/09 00:44:00.002,n,270,2.52,1.8,2.88,11.3,74.5,1020.92,0,0,0,0,0.030479
2022/08/09 00:45:00.015,n,283,2.52,1.8,3.24,11.2,74.5,1020.92,0,0,0,0,0.032234
2022/08/09 00:46:00.000,n,239,1.8,1.08,3.6,11.2,74.6,1020.92,0,0,0,0,0.029602
2022/08/09 00:47:00.000,n,268,6.12,5.4,6.12,11.2,74.7,1020.92,0,0,0,0,0.030479
2022/08/09 00:48:00.000,n,285,2.52,1.44,4.32,11.2,74.6,1020.92,0,0,0,0,0.030479
2022/08/09 00:49:00.004,n,254,5.4,5.04,6.12,11.2,74.6,1020.92,0,0,0,0,0.028725
2022/08/09 00:50:00.001,n,286,3.96,3.24,4.32,11.2,74.6,1020.92,0,0,0,0,0.027885
2022/08/09 00:51:00.000,n,218,1.44,1.44,1.44,11.2,74.6,1020.92,0,0,0,0,0.029602
2022/08/09 00:52:00.012,n,235,3.96,1.08,6.12,11.2,74.6,1020.82,0,0,0,0,0.027885
2022/08/09 00:53:00.009,n,159,6.12,2.88,9,11.1,74.7,1020.82,0,0,0,0,0.026093
2022/08/09 00:54:00.006,n,293,2.16,1.8,2.88,11.2,74.7,1020.82,0,0,0,0,0.02697
2022/08/09 00:55:00.000,n,264,2.88,2.52,3.6,11.2,74.6,1020.82,0,0,0,0,0.023499
2022/08/09 00:56:00.000,n,270,3.6,2.88,3.96,11.2,74.7,1020.82,0,0,0,0,0.029602
2022/08/09 00:57:00.000,n,266,5.04,4.32,5.4,11.2,74.6,1020.82,0,0,0,0,0.026093
2022/08/09 00:58:00.000,n,264,7.2,5.76,8.64,11.1,74.5,1020.82,0,0,0,0,0.022621
2022/08/09 00:59:00.006,n,252,7.2,6.84,7.92,11.1,74.4,1020.82,0,0,0,0,0.023499
2022/08/09 01:00:00.003,n,233,2.52,0.72,4.68,11.2,74.4,1020.82,0,0,0,0,0.023499
2022/08/09 01:01:00.001,n,274,1.8,1.8,3.24,11.2,74.3,1020.82,0,0,0,0,0.025253
2022/08/09 01:02:00.014,n,239,2.52,1.8,2.52,11.2,74.3,1020.82,0,0,0,0,0.02697
2022/08/09 01:03:00.010,n,247,2.88,2.16,3.6,11.2,74.3,1020.82,0,0,0,0,0.026093
2022/08/09 01:04:00.000,n,298,0.72,0,1.44,11.2,74.3,1020.82,0,0,0,0,0.022621
2022/08/09 01:05:00.000,n,186,1.08,0.36,1.8,11.2,74.3,1020.82,0,0,0,0,0.020905
2022/08/09 01:06:00.000,n,335,1.44,1.44,1.8,11.2,74.2,1020.82,0,0,0,0,0.021744
2022/08/09 01:07:00.000,n,282,4.32,2.88,5.76,11.2,74.2,1020.82,0,0,0,0,0.024376
2022/08/09 01:08:00.000,n,232,1.08,0.36,1.8,11.2,74.4,1020.82,0,0,0,0,0.021744
2022/08/09 01:09:00.007,n,126,2.16,1.08,6.12,11.3,74.2,1020.82,0,0,0,0,0.021744
2022/08/09 01:10:00.004,n,287,0.72,0.36,1.44,11.3,74.1,1020.82,0,0,0,0,0.024376
2022/08/09 01:11:00.001,n,151,4.32,2.16,7.2,11.3,74,1020.82,0,0,0,0,0.020905
2022/08/09 01:12:00.015,n,160,0.72,0.36,1.44,11.3,73.8,1020.82,0,0,0,0,0.024414
2022/08/09 01:13:00.000,n,178,2.16,0.72,7.56,11.3,73.9,1020.82,0,0,0,0,0.02964
2022/08/09 01:14:00.000,n,233,2.16,1.08,2.88,11.3,73.8,1020.72,0,0,0,0,0.02964
2022/08/09 01:15:00.000,n,145,2.88,1.8,7.2,11.3,73.8,1020.72,0,0,0,0,0.027885
2022/08/09 01:16:00.000,n,145,2.88,2.88,3.24,11.2,74.2,1020.72,0,0,0,0,0.027046
2022/08/09 01:17:00.000,n,162,2.16,1.8,2.52,11.2,74.6,1020.72,0,0,0,0,0.026131
2022/08/09 01:18:00.009,n,118,1.8,1.44,2.16,11.1,75,1020.72,0,0,0,0,0.026131
2022/08/09 01:19:00.005,n,149,1.44,1.08,1.8,11.1,75.3,1020.72,0,0,0,0,0.024414
2022/08/09 01:20:00.003,n,119,2.52,2.16,2.88,11,75.6,1020.72,0,0,0,0,0.026131
2022/08/09 01:21:00.000,n,153,1.08,1.08,1.44,11,75.8,1020.72,0,0,0,0,0.025253
2022/08/09 01:22:00.000,n,112,1.8,1.44,1.8,10.9,76,1020.72,0,0,0,0,0.024414
2022/08/09 01:23:00.000,n,19,0.36,0.36,0.72,10.9,76.1,1020.72,0,0,0,0,0.024414
2022/08/09 01:24:00.000,n,128,3.6,2.88,3.96,10.9,76.1,1020.72,0,0,0,0,0.021782
2022/08/09 01:25:00.005,n,148,3.6,3.6,3.96,10.8,76.3,1020.72,0,0,0,0,0.023537
2022/08/09 01:26:00.002,n,149,2.52,2.52,2.88,10.8,76.5,1020.72,0,0,0,0,0.023537
2022/08/09 01:27:00.000,n,145,6.12,6.12,6.12,10.8,76.7,1020.72,0,0,0,0,0.021782
2022/08/09 01:28:00.013,n,171,4.32,3.6,8.28,10.8,76.8,1020.72,0,0,0,0,0.021782
2022/08/09 01:29:00.010,n,181,2.88,2.16,6.48,10.7,76.9,1020.62,0,0,0,0,0.021782
2022/08/09 01:30:00.007,n,152,7.2,3.96,8.64,10.7,77,1020.62,0,0,0,0,0.023537
2022/08/09 01:31:00.000,n,152,3.96,2.88,7.92,10.7,77.1,1020.62,0,0,0,0,0.024414
2022/08/09 01:32:00.000,n,159,2.52,1.44,6.84,10.7,77.1,1020.62,0,0,0,0,0.020065
2022/08/09 01:33:00.000,n,143,2.16,1.8,2.52,10.7,77.2,1020.52,0,0,0,0,0.018311
2022/08/09 01:34:00.000,n,211,3.6,3.24,4.68,10.7,77.2,1020.52,0,0,0,0,0.019188
2022/08/09 01:35:00.000,n,269,6.84,6.12,7.56,10.7,77.2,1020.52,0,0,0,0,0.020905
2022/08/09 01:36:00.006,n,258,3.6,3.24,3.96,10.7,76.9,1020.52,0,0,0,0,0.020065
2022/08/09 01:37:00.000,n,214,2.88,2.16,5.76,10.7,76.8,1020.52,0,0,0,0,0.027885
2022/08/09 01:38:00.013,n,252,1.08,0.72,1.08,10.7,76.7,1020.52,0,0,0,0,0.029602
2022/08/09 01:39:00.011,n,214,0.72,0.36,1.08,10.7,77,1020.52,0,0,0,0,0.024414
2022/08/09 01:40:00.000,n,280,1.8,1.08,2.16,10.7,76.8,1020.52,0,0,0,0,0.025253
2022/08/09 01:41:00.000,n,352,0.72,0.36,1.44,10.7,76.6,1020.52,0,0,0,0,0.026169
2022/08/09 01:42:00.002,n,297,1.44,1.08,1.44,10.7,76.7,1020.52,0,0,0,0,0.024414
2022/08/09 01:43:00.000,n,5,1.44,0.72,3.6,10.7,76.8,1020.52,0,0,0,0,0.023537
2022/08/09 01:44:00.000,n,276,2.16,2.16,2.52,10.8,76.6,1020.42,0,0,0,0,0.024414
2022/08/09 01:45:00.009,n,259,6.84,6.12,7.2,10.8,76,1020.42,0,0,0,0,0.025253
2022/08/09 01:46:00.006,n,232,4.32,4.32,4.68,10.8,75.6,1020.42,0,0,0,0,0.022659
2022/08/09 01:47:00.004,n,309,1.8,0.36,3.6,10.8,75.6,1020.42,0,0,0,0,0.020905
2022/08/09 01:48:00.002,n,268,8.64,6.12,10.8,10.8,75.3,1020.42,0,0,0,0,0.024414
2022/08/09 01:49:00.000,n,284,3.24,3.24,3.24,10.8,75.3,1020.42,0,0,0,0,0.020065
2022/08/09 01:50:00.000,n,288,2.88,2.16,3.24,10.8,75.1,1020.42,0,0,0,0,0.027046
2022/08/09 01:51:00.000,n,265,1.44,1.08,2.16,10.8,75.1,1020.42,0,0,0,0,0.023537
2022/08/09 01:52:00.000,n,274,4.68,3.96,5.04,10.8,75.2,1020.42,0,0,0,0,0.023537
2022/08/09 01:53:00.005,n,257,4.68,3.24,5.4,10.8,75,1020.42,0,0,0,0,0.023537
2022/08/09 01:54:00.002,n,189,2.88,1.8,4.32,10.8,74.9,1020.42,0,0,0,0,0.023537
2022/08/09 01:55:00.000,n,282,2.16,1.08,3.24,10.7,74.8,1020.42,0,0,0,0,0.023537
2022/08/09 01:56:00.013,n,293,1.8,1.8,2.16,10.7,74.8,1020.42,0,0,0,0,0.022659
2022/08/09 01:57:00.010,n,244,1.44,1.44,1.8,10.7,74.9,1020.42,0,0,0,0,0.020905
2022/08/09 01:58:00.000,n,22,0.72,0.36,1.08,10.7,74.8,1020.42,0,0,0,0,0.019188
2022/08/09 01:59:00.000,n,248,0.72,0.36,1.08,10.7,75.1,1020.42,0,0,0,0,0.017471
2022/08/09 02:00:00.001,n,126,1.08,0.72,1.8,10.8,75,1020.42,0,0,0,0,0.02182
2022/08/09 02:01:00.000,n,111,2.16,1.8,2.52,10.8,74.8,1020.42,0,0,0,0,0.020905
2022/08/09 02:02:00.000,n,93,0.72,0.36,1.44,10.8,74.8,1020.42,0,0,0,0,0.020065
2022/08/09 02:03:00.009,n,129,2.52,2.16,3.24,10.8,74.9,1020.42,0,0,0,0,0.022659
2022/08/09 02:04:00.006,n,140,3.24,1.44,7.92,10.8,75.2,1020.42,0,0,0,0,0.018311
2022/08/09 02:05:00.003,n,161,2.52,1.8,3.24,10.7,75.4,1020.42,0,0,0,0,0.016556
2022/08/09 02:06:00.000,n,215,1.08,0.72,1.8,10.7,75.7,1020.42,0,0,0,0,0.014839
2022/08/09 02:07:00.000,n,270,2.52,2.16,2.88,10.7,75.8,1020.42,0,0,0,0,0.017471
2022/08/09 02:08:00.000,n,171,1.8,1.08,2.88,10.7,76,1020.42,0,0,0,0,0.017471
2022/08/09 02:09:00.000,n,129,1.08,0.72,1.8,10.7,75.9,1020.32,0,0,0,0,0.022659
2022/08/09 02:10:00.006,n,171,3.6,1.44,7.56,10.6,76,1020.32,0,0,0,0,0.017471
2022/08/09 02:11:00.003,n,143,1.44,0.72,1.8,10.6,75.8,1020.32,0,0,0,0,0.013962
2022/08/09 02:12:00.000,n,283,1.8,1.8,1.8,10.6,75.9,1020.32,0,0,0,0,0.024376
2022/08/09 02:13:00.012,n,263,1.08,0.72,1.44,10.6,75.9,1020.32,0,0,0,0,0.02697
2022/08/09 02:14:00.009,n,175,2.16,1.8,2.88,10.6,76.1,1020.32,0,0,0,0,0.027885
2022/08/09 02:15:00.006,n,298,2.16,1.8,2.52,10.6,75.9,1020.32,0,0,0,0,0.027885
2022/08/09 02:16:00.000,n,240,1.8,1.44,2.16,10.6,75.8,1020.32,0,0,0,0,0.025253
2022/08/09 02:17:00.000,n,91,1.08,0.72,1.8,10.6,75.8,1020.32,0,0,0,0,0.02697
2022/08/09 02:18:00.000,n,203,0.72,0.36,1.44,10.6,75.8,1020.42,0,0,0,0,0.028763
2022/08/09 02:19:00.000,n,191,1.44,0.72,1.8,10.6,75.8,1020.42,0,0,0,0,0.026131
2022/08/09 02:20:00.007,n,230,1.08,0.36,1.8,10.6,75.8,1020.42,0,0,0,0,0.025253
2022/08/09 02:21:00.004,n,163,1.44,1.08,1.8,10.6,75.8,1020.32,0,0,0,0,0.026131
2022/08/09 02:22:00.001,n,111,0.36,0.36,0.72,10.6,75.9,1020.32,0,0,0,0,0.027885
2022/08/09 02:23:00.000,n,158,1.08,0.72,1.44,10.6,75.9,1020.32,0,0,0,0,0.028763
2022/08/09 02:24:00.011,n,266,1.8,1.44,2.16,10.6,75.9,1020.32,0,0,0,0,0.029602
2022/08/09 02:25:00.000,n,281,1.08,0,1.8,10.6,75.8,1020.32,0,0,0,0,0.029602
2022/08/09 02:26:00.000,n,192,2.16,1.08,3.96,10.6,75.8,1020.32,0,0,0,0,0.030479
2022/08/09 02:27:00.002,n,289,1.44,0.36,1.8,10.6,75.7,1020.32,0,0,0,0,0.027885
2022/08/09 02:28:00.001,n,308,1.8,0.36,2.52,10.6,75.8,1020.32,0,0,0,0,0.02697
2022/08/09 02:29:00.002,n,262,5.04,4.32,5.4,10.6,75.5,1020.32,0,0,0,0,0.028763
2022/08/09 02:30:00.000,n,268,5.4,4.68,5.76,10.6,75.5,1020.32,0,0,0,0,0.02697
2022/08/09 02:31:00.008,n,228,0.36,0.36,1.08,10.6,75.6,1020.32,0,0,0,0,0.028763
2022/08/09 02:32:00.005,n,262,2.16,1.44,2.52,10.6,75.7,1020.32,0,0,0,0,0.02697
2022/08/09 02:33:00.003,n,263,3.6,0.72,4.68,10.6,75.6,1020.32,0,0,0,0,0.02697
2022/08/09 02:34:00.000,n,194,2.52,1.44,6.48,10.6,75.5,1020.32,0,0,0,0,0.025253
2022/08/09 02:35:00.000,n,256,1.8,1.8,2.16,10.6,75.2,1020.32,0,0,0,0,0.028763
2022/08/09 02:36:00.000,n,130,2.16,1.08,3.6,10.6,75.2,1020.32,0,0,0,0,0.02697
2022/08/09 02:37:00.006,n,149,3.24,2.88,3.6,10.6,75.1,1020.32,0,0,0,0,0.024376
2022/08/09 02:38:00.004,n,152,3.24,2.52,3.6,10.6,75.1,1020.32,0,0,0,0,0.027885
2022/08/09 02:39:00.000,n,168,3.96,2.16,6.48,10.6,75.1,1020.32,0,0,0,0,0.027885
2022/08/09 02:40:00.000,n,151,2.52,2.16,3.24,10.6,75,1020.32,0,0,0,0,0.025253
2022/08/09 02:41:00.011,n,140,3.96,3.24,4.32,10.6,74.8,1020.32,0,0,0,0,0.02697
2022/08/09 02:42:00.008,n,165,5.4,3.24,7.92,10.5,75.1,1020.32,0,0,0,0,0.027885
2022/08/09 02:43:00.000,n,151,1.8,0.36,4.32,10.5,75.2,1020.32,0,0,0,0,0.028763
2022/08/09 02:44:00.001,n,151,2.16,1.44,2.52,10.5,75.2,1020.32,0,0,0,0,0.024376
2022/08/09 02:45:00.000,n,190,3.96,3.6,4.68,10.4,75.3,1020.32,0,0,0,0,0.02697
2022/08/09 02:46:00.000,n,165,5.4,3.96,9.72,10.4,75.4,1020.32,0,0,0,0,0.027885
2022/08/09 02:47:00.000,n,155,3.6,0.72,8.64,10.4,75.4,1020.32,0,0,0,0,0.028763
2022/08/09 02:48:00.006,n,149,7.2,5.04,9.36,10.4,75.4,1020.32,0,0,0,0,0.026131
2022/08/09 02:49:00.003,n,162,9.72,7.2,12.6,10.4,75.6,1020.32,0,0,0,0,0.027885
2022/08/09 02:50:00.000,n,153,9,6.48,10.8,10.4,75.5,1020.32,0,0,0,0,0.027885
2022/08/09 02:51:00.013,n,146,2.52,0.36,9,10.4,75.6,1020.32,0,0,0,0,0.026131
2022/08/09 02:52:00.000,n,184,5.4,3.96,9.36,10.4,75.6,1020.32,0,0,0,0,0.030479
2022/08/09 02:53:00.000,n,179,4.32,3.24,7.92,10.3,75.5,1020.32,0,0,0,0,0.027885
2022/08/09 02:54:00.004,n,132,3.24,2.88,3.96,10.4,75.5,1020.32,0,0,0,0,0.023499
2022/08/09 02:55:00.002,n,166,6.48,3.96,9,10.4,75.5,1020.32,0,0,0,0,0.025253
2022/08/09 02:56:00.000,n,167,7.2,5.4,10.8,10.4,75.3,1020.32,0,0,0,0,0.02697
2022/08/09 02:57:00.000,n,173,6.12,5.04,9.72,10.4,75.3,1020.32,0,0,0,0,0.027885
2022/08/09 02:58:00.009,n,183,2.16,2.16,2.52,10.4,75.3,1020.32,0,0,0,0,0.025253
2022/08/09 02:59:00.006,n,159,5.04,1.08,9,10.4,75.3,1020.32,0,0,0,0,0.026131
2022/08/09 03:00:00.003,n,196,2.16,1.08,3.6,10.4,75.2,1020.32,0,0,0,0,0.025253
2022/08/09 03:01:00.001,n,161,2.16,1.44,2.88,10.4,75,1020.32,0,0,0,0,0.02697
2022/08/09 03:02:00.000,n,175,2.16,1.8,2.52,10.4,75,1020.32,0,0,0,0,0.028763
2022/08/09 03:03:00.000,n,157,6.12,2.88,10.440002,10.4,74.8,1020.32,0,0,0,0,0.026131
2022/08/09 03:04:00.000,n,166,6.84,4.68,10.440002,10.4,74.8,1020.32,0,0,0,0,0.023499
2022/08/09 03:05:00.006,n,160,9.72,5.04,11.88,10.4,74.7,1020.32,0,0,0,0,0.023499
2022/08/09 03:06:00.004,n,156,3.6,2.88,7.56,10.4,74.7,1020.32,0,0,0,0,0.026131
2022/08/09 03:07:00.000,n,153,4.68,3.96,6.12,10.4,74.7,1020.32,0,0,0,0,0.023499
2022/08/09 03:08:00.013,n,161,1.8,0.72,2.52,10.4,74.6,1020.32,0,0,0,0,0.020027
2022/08/09 03:09:00.012,n,172,2.88,0.72,5.76,10.4,74.6,1020.32,0,0,0,0,0.025253
2022/08/09 03:10:00.000,n,200,3.6,3.6,3.96,10.4,74.6,1020.32,0,0,0,0,0.023499
2022/08/09 03:11:00.000,n,221,4.68,3.6,5.76,10.4,74.4,1020.32,0,0,0,0,0.022621
2022/08/09 03:12:00.004,n,99,1.44,0.72,2.16,10.5,74.1,1020.32,0,0,0,0,0.020905
2022/08/09 03:13:00.001,n,159,6.48,3.24,11.88,10.5,73.9,1020.32,0,0,0,0,0.022621
2022/08/09 03:14:00.000,n,173,2.16,0.72,3.96,10.5,73.8,1020.32,0,0,0,0,0.026131
2022/08/09 03:15:00.000,n,205,2.16,1.44,3.6,10.5,73.7,1020.32,0,0,0,0,0.022621
2022/08/09 03:16:00.008,n,150,4.32,3.6,5.4,10.5,73.6,1020.32,0,0,0,0,0.024376
2022/08/09 03:17:00.007,n,154,3.24,0.72,7.92,10.5,73.6,1020.32,0,0,0,0,0.020027
2022/08/09 03:18:00.004,n,155,11.16,3.6,14.4,10.5,73.5,1020.32,0,0,0,0,0.02697
2022/08/09 03:19:00.002,n,176,5.04,3.24,8.28,10.5,73.5,1020.32,0,0,0,0,0.022621
2022/08/09 03:20:00.000,n,254,3.24,2.88,3.6,10.6,73.5,1020.32,0,0,0,0,0.020905
2022/08/09 03:21:00.000,n,222,2.52,1.44,3.24,10.6,73.6,1020.32,0,0,0,0,0.02697
2022/08/09 03:22:00.000,n,257,3.24,2.16,3.6,10.6,73.6,1020.32,0,0,0,0,0.024376
2022/08/09 03:23:00.006,n,298,1.8,0.72,2.52,10.6,73.6,1020.32,0,0,0,0,0.021782
2022/08/09 03:24:00.003,n,258,1.44,0.72,1.8,10.6,73.7,1020.32,0,0,0,0,0.021782
2022/08/09 03:25:00.000,n,270,2.52,1.44,3.96,10.6,73.8,1020.32,0,0,0,0,0.021782
2022/08/09 03:26:00.013,n,99,1.44,1.44,1.8,10.6,73.6,1020.32,0,0,0,0,0.022621
2022/08/09 03:27:00.014,n,134,1.08,0.72,1.44,10.6,73.6,1020.32,0,0,0,0,0.025253
2022/08/09 03:28:00.000,n,198,2.52,2.16,2.88,10.6,73.5,1020.32,0,0,0,0,0.020905
2022/08/09 03:29:00.000,n,207,0.72,0.36,1.08,10.6,73.3,1020.32,0,0,0,0,0.022621
2022/08/09 03:30:00.002,n,132,3.24,1.08,8.28,10.6,73.3,1020.32,0,0,0,0,0.023499
2022/08/09 03:31:00.000,n,247,2.88,2.16,3.6,10.6,73.4,1020.32,0,0,0,0,0.023499
2022/08/09 03:32:00.000,n,223,2.88,2.52,3.6,10.6,73.3,1020.32,0,0,0,0,0.022621
2022/08/09 03:33:00.010,n,161,4.68,1.44,8.64,10.6,73.3,1020.32,0,0,0,0,0.022621
2022/08/09 03:34:00.007,n,139,3.6,2.88,4.32,10.6,73.3,1020.32,0,0,0,0,0.023499
2022/08/09 03:35:00.004,n,159,8.64,5.4,11.52,10.6,73.3,1020.32,0,0,0,0,0.023499
2022/08/09 03:36:00.000,n,154,10.8,9.72,11.52,10.6,73.3,1020.32,0,0,0,0,0.023499
2022/08/09 03:37:00.000,n,179,3.96,1.44,8.64,10.6,73.3,1020.32,0,0,0,0,0.020027
2022/08/09 03:38:00.000,n,181,6.12,5.04,6.48,10.6,73.3,1020.32,0,0,0,0,0.02697
2022/08/09 03:39:00.000,n,173,6.48,2.16,9.72,10.5,73.3,1020.32,0,0,0,0,0.024376
2022/08/09 03:40:00.005,n,139,3.24,1.8,5.04,10.5,73.4,1020.32,0,0,0,0,0.024376
2022/08/09 03:41:00.003,n,160,7.92,4.32,11.52,10.5,73.5,1020.32,0,0,0,0,0.025253
2022/08/09 03:42:00.000,n,181,5.04,0.72,9.72,10.5,73.7,1020.32,0,0,0,0,0.021782
2022/08/09 03:43:00.000,n,173,6.84,5.76,10.8,10.5,73.7,1020.32,0,0,0,0,0.028763
2022/08/09 03:44:00.011,n,148,2.88,2.16,3.96,10.5,73.8,1020.32,0,0,0,0,0.022621
2022/08/09 03:45:00.008,n,203,1.44,0.36,2.52,10.5,73.8,1020.32,0,0,0,0,0.023499
2022/08/09 03:46:00.000,n,151,2.16,1.8,3.24,10.5,74,1020.42,0,0,0,0,0.025253
2022/08/09 03:47:00.003,n,161,2.52,1.44,3.6,10.5,73.8,1020.42,0,0,0,0,0.023499
2022/08/09 03:48:00.000,n,161,5.4,2.52,9.36,10.5,73.9,1020.42,0,0,0,0,0.022621
2022/08/09 03:49:00.000,n,178,4.68,2.88,9,10.5,73.7,1020.42,0,0,0,0,0.022621
2022/08/09 03:50:00.000,n,192,2.16,1.44,2.88,10.5,73.8,1020.42,0,0,0,0,0.023499
2022/08/09 03:51:00.008,n,168,3.96,1.8,9,10.5,73.7,1020.42,0,0,0,0,0.026131
2022/08/09 03:52:00.005,n,166,6.48,3.24,9.36,10.5,73.6,1020.42,0,0,0,0,0.024376
2022/08/09 03:53:00.003,n,203,6.12,4.68,7.56,10.5,73.7,1020.32,0,0,0,0,0.021782
2022/08/09 03:54:00.000,n,132,2.16,0.72,3.24,10.5,73.7,1020.32,0,0,0,0,0.021782
2022/08/09 03:55:00.000,n,119,1.44,0.72,2.52,10.5,73.9,1020.32,0,0,0,0,0.022621
2022/08/09 03:56:00.000,n,163,4.68,1.44,8.28,10.5,73.7,1020.32,0,0,0,0,0.018272
2022/08/09 03:57:00.000,n,172,6.12,3.96,9.36,10.5,73.7,1020.32,0,0,0,0,0.024376
2022/08/09 03:58:00.004,n,207,7.2,4.68,10.08,10.5,73.8,1020.32,0,0,0,0,0.022621
2022/08/09 03:59:00.002,n,185,4.68,3.24,5.4,10.5,73.8,1020.32,0,0,0,0,0.020905
2022/08/09 04:00:00.000,n,172,1.08,0.36,2.52,10.5,73.9,1020.32,0,0,0,0,0.022621
2022/08/09 04:01:00.012,n,153,3.24,2.16,3.96,10.5,73.9,1020.32,0,0,0,0,0.021782
2022/08/09 04:02:00.010,n,77,1.8,0.36,2.88,10.5,74,1020.32,0,0,0,0,0.01915
2022/08/09 04:03:00.006,n,190,4.32,3.6,8.28,10.5,74.1,1020.32,0,0,0,0,0.01915
2022/08/09 04:04:00.000,n,142,4.68,2.88,5.4,10.5,74,1020.32,0,0,0,0,0.020905
2022/08/09 04:05:00.000,n,152,5.04,3.6,9.36,10.5,74,1020.32,0,0,0,0,0.01915
2022/08/09 04:06:00.000,n,212,1.8,1.44,2.16,10.5,74.1,1020.32,0,0,0,0,0.020905
2022/08/09 04:07:00.000,n,211,2.16,0.72,4.68,10.5,74.3,1020.32,0,0,0,0,0.020027
2022/08/09 04:08:00.007,n,225,1.8,0.72,2.16,10.5,74.1,1020.32,0,0,0,0,0.020027
2022/08/09 04:09:00.004,n,179,2.16,1.08,4.32,10.5,74.2,1020.32,0,0,0,0,0.020905
2022/08/09 04:10:00.001,n,168,6.12,3.96,10.08,10.5,74.3,1020.32,0,0,0,0,0.021782
2022/08/09 04:11:00.000,n,48,0.72,0.36,1.8,10.5,74.4,1020.32,0,0,0,0,0.01915
2022/08/09 04:12:00.013,n,135,1.44,0.72,2.52,10.5,74.3,1020.32,0,0,0,0,0.020905
2022/08/09 04:13:00.000,n,165,5.76,3.6,8.28,10.5,74.4,1020.32,0,0,0,0,0.020905
2022/08/09 04:14:00.000,n,246,1.08,0.72,2.16,10.5,74.3,1020.32,0,0,0,0,0.020905
2022/08/09 04:15:00.004,n,170,2.88,0.72,9,10.5,74.4,1020.32,0,0,0,0,0.01915
2022/08/09 04:16:00.001,n,172,2.16,1.44,3.24,10.5,74.6,1020.32,0,0,0,0,0.022621
2022/08/09 04:17:00.000,n,6,1.8,0.72,2.16,10.6,74.7,1020.32,0,0,0,0,0.021782
2022/08/09 04:18:00.000,n,305,2.16,1.44,2.88,10.6,74.5,1020.32,0,0,0,0,0.020905
2022/08/09 04:19:00.011,n,157,2.52,2.52,2.52,10.6,74.5,1020.32,0,0,0,0,0.021782
2022/08/09 04:20:00.009,n,331,1.8,1.08,2.88,10.6,74.5,1020.32,0,0,0,0,0.021782
2022/08/09 04:21:00.005,n,291,3.6,3.24,3.96,10.6,74.4,1020.42,0,0,0,0,0.021782
2022/08/09 04:22:00.000,n,260,5.76,4.68,7.2,10.6,74.5,1020.42,0,0,0,0,0.01915
2022/08/09 04:23:00.000,n,225,2.88,2.16,3.6,10.6,74.3,1020.42,0,0,0,0,0.023499
2022/08/09 04:24:00.000,n,284,5.04,3.24,6.84,10.6,74.3,1020.32,0,0,0,0,0.020905
2022/08/09 04:25:00.000,n,315,1.08,0.72,1.44,10.6,74.7,1020.32,0,0,0,0,0.022621
2022/08/09 04:26:00.006,n,86,0.72,0.36,1.08,10.6,74.4,1020.32,0,0,0,0,0.021782
2022/08/09 04:27:00.004,n,252,3.96,2.88,5.4,10.6,74.4,1020.32,0,0,0,0,0.020905
2022/08/09 04:28:00.001,n,189,0.72,0,0.72,10.6,74.5,1020.32,0,0,0,0,0.023499
2022/08/09 04:29:00.014,n,278,4.32,2.88,5.76,10.5,74.4,1020.32,0,0,0,0,0.023499
2022/08/09 04:30:00.011,n,93,0.72,0.36,1.08,10.5,74.4,1020.32,0,0,0,0,0.020905
2022/08/09 04:31:00.000,n,106,1.44,0.72,2.16,10.5,74.5,1020.32,0,0,0,0,0.024376
2022/08/09 04:32:00.000,n,161,0.72,0.36,1.44,10.5,74.6,1020.32,0,0,0,0,0.024376
2022/08/09 04:33:00.002,n,169,3.96,3.24,7.56,10.5,74.6,1020.32,0,0,0,0,0.024376
2022/08/09 04:34:00.000,n,134,2.52,1.8,2.88,10.5,74.7,1020.32,0,0,0,0,0.020905
2022/08/09 04:35:00.000,n,259,1.44,1.08,1.8,10.4,74.9,1020.32,0,0,0,0,0.021782
2022/08/09 04:36:00.010,n,47,0.72,0.36,1.44,10.4,75.1,1020.42,0,0,0,0,0.01915
2022/08/09 04:37:00.008,n,299,2.88,2.16,3.24,10.4,75.2,1020.42,0,0,0,0,0.021782
2022/08/09 04:38:00.005,n,135,1.08,0.72,1.44,10.5,75.1,1020.42,0,0,0,0,0.023499
2022/08/09 04:39:00.002,n,254,0.72,0.36,1.08,10.5,75,1020.42,0,0,0,0,0.01915
2022/08/09 04:40:00.000,n,260,0.72,0,0.72,10.5,75.2,1020.42,0,0,0,0,0.01915
2022/08/09 04:41:00.000,n,151,0.36,0,0.72,10.5,75.2,1020.52,0,0,0,0,0.021782
2022/08/09 04:42:00.000,n,155,1.44,1.08,1.44,10.5,75.2,1020.52,0,0,0,0,0.023499
2022/08/09 04:43:00.007,n,275,0.72,0.36,1.44,10.5,75.1,1020.52,0,0,0,0,0.020027
2022/08/09 04:44:00.004,n,277,0.36,0.36,0.72,10.5,75.2,1020.52,0,0,0,0,0.022621
2022/08/09 04:45:00.001,n,304,1.08,0.72,1.44,10.5,75,1020.52,0,0,0,0,0.027008
2022/08/09 04:46:00.011,n,226,1.44,0.72,2.16,10.4,75,1020.52,0,0,0,0,0.029602
2022/08/09 04:47:00.009,n,200,1.8,0.72,2.16,10.4,75,1020.52,0,0,0,0,0.033951
2022/08/09 04:48:00.005,n,197,1.8,1.8,2.52,10.4,75.1,1020.52,0,0,0,0,0.032234
2022/08/09 04:49:00.000,n,17,1.08,0.36,2.16,10.4,75.6,1020.52,0,0,0,0,0.031357
2022/08/09 04:50:00.000,n,128,1.8,0.36,2.88,10.4,75.5,1020.52,0,0,0,0,0.030479
2022/08/09 04:51:00.000,n,172,0.72,0.36,1.44,10.4,75.2,1020.52,0,0,0,0,0.028725
2022/08/09 04:52:00.000,n,150,1.08,0.72,1.8,10.4,75.3,1020.52,0,0,0,0,0.028725
2022/08/09 04:53:00.007,n,153,1.44,0.72,2.52,10.4,75.3,1020.52,0,0,0,0,0.033951
2022/08/09 04:54:00.005,n,199,2.52,1.44,3.24,10.4,75.3,1020.52,0,0,0,0,0.028725
2022/08/09 04:55:00.002,n,142,1.8,1.44,2.16,10.4,75.2,1020.52,0,0,0,0,0.029602